CW4221 Weather Reports


Display with metric or nautical units.
time (UTC)temp
F
wind
direction
speed
MPH
gust
MPH
rain 1hr
in
rain 24hr
in
rain mn
in
humidity
%
barometer
mb
20240612145327 76 260 0.0 2.0 0.00 0.00 0.00 73 1017.9
20240612144842 76 240 0.0 0.0 0.00 0.00 0.00 74 1018.0
20240612144317 75 211 0.0 1.0 0.00 0.00 0.00 73 1018.0
20240612143811 75 223 0.0 1.0 0.00 0.00 0.00 75 1018.0
20240612143326 74 219 0.0 4.0 0.00 0.00 0.00 75 1018.0
20240612142841 74 177 0.0 5.0 0.00 0.00 0.00 76 1018.0
20240612142316 74 220 2.0 5.0 0.00 0.00 0.00 76 1018.0
20240612141812 74 202 2.0 5.0 0.00 0.00 0.00 77 1018.1
20240612141312 73 213 0.0 6.0 0.00 0.00 0.00 77 1018.1
20240612140847 73 181 2.0 7.0 0.00 0.00 0.00 77 1018.1
20240612140342 73 224 3.0 7.0 0.00 0.00 0.00 78 1018.1
20240612135818 72 200 3.0 6.0 0.00 0.00 0.00 78 1018.0
20240612135314 72 211 4.0 6.0 0.00 0.00 0.00 78 1018.1
20240612134810 72 216 2.0 5.0 0.00 0.00 0.00 79 1018.1
20240612134326 72 213 1.0 4.0 0.00 0.00 0.00 81 1018.1
20240612133822 71 219 3.0 4.0 0.00 0.00 0.00 80 1018.1
20240612133356 71 202 2.0 7.0 0.00 0.00 0.00 82 1018.1
20240612131328 69 217 0.0 1.0 0.00 0.00 0.00 86 1017.9
20240612130819 68 138 0.0 0.0 0.00 0.00 0.00 88 1017.9
20240612130333 67 138 0.0 0.0 0.00 0.00 0.00 90 1017.8
20240612125826 66 215 0.0 1.0 0.00 0.00 0.00 92 1017.8
20240612125321 65 201 0.0 1.0 0.00 0.00 0.00 93 1017.7
20240612124817 65 88 0.0 0.0 0.00 0.00 0.00 94 1017.7
20240612124309 64 66 0.0 0.0 0.00 0.00 0.00 95 1017.6
20240612123828 63 66 0.0 0.0 0.00 0.00 0.00 96 1017.6
20240612123324 63 66 0.0 0.0 0.00 0.00 0.00 96 1017.6
20240612122817 62 66 0.0 0.0 0.00 0.00 0.00 96 1017.5
20240612122311 62 66 0.0 0.0 0.00 0.00 0.00 96 1017.5
20240612121826 61 66 0.0 0.0 0.00 0.00 0.00 96 1017.5
20240612121343 61 66 0.0 0.0 0.00 0.00 0.00 97 1017.5
20240612120815 60 66 0.0 0.0 0.00 0.00 0.00 96 1017.4
20240612120311 60 66 0.0 0.0 0.00 0.00 0.00 97 1017.5
20240612115824 60 66 0.0 1.0 0.00 0.00 0.00 96 1017.5
20240612115323 60 66 0.0 1.0 0.00 0.00 0.00 97 1017.4
20240612114819 59 66 0.0 0.0 0.00 0.00 0.00 96 1017.4
20240612114314 58 66 0.0 0.0 0.00 0.00 0.00 96 1017.2
20240612113849 58 66 0.0 0.0 0.00 0.00 0.00 96 1017.2
20240612113344 58 66 0.0 0.0 0.00 0.00 0.00 96 1017.2
20240612112817 58 66 0.0 0.0 0.00 0.00 0.00 96 1017.1
20240612112312 58 66 0.0 0.0 0.00 0.00 0.00 96 1017.2
20240612111827 57 66 0.0 0.0 0.00 0.00 0.00 96 1017.2
20240612111325 57 66 0.0 0.0 0.00 0.00 0.00 96 1017.1
20240612110819 57 66 0.0 0.0 0.00 0.00 0.00 96 1017.1
20240612110314 57 66 0.0 0.0 0.00 0.00 0.00 96 1017.1
20240612105828 57 66 0.0 0.0 0.00 0.00 0.00 96 1016.9
20240612105324 57 66 0.0 0.0 0.00 0.00 0.00 96 1016.9
20240612104818 57 66 0.0 0.0 0.00 0.00 0.00 96 1016.9
20240612104314 57 66 0.0 0.0 0.00 0.00 0.00 96 1016.9
20240612103829 57 66 0.0 0.0 0.00 0.00 0.00 96 1016.9
20240612103345 57 66 0.0 0.0 0.00 0.00 0.00 96 1017.0
20240612102843 57 66 0.0 0.0 0.00 0.00 0.00 96 1017.0
20240612102317 58 66 0.0 0.0 0.00 0.00 0.00 96 1016.9
20240612101812 58 66 0.0 0.0 0.00 0.00 0.00 96 1016.9
20240612101326 58 66 0.0 0.0 0.00 0.00 0.00 96 1016.8
20240612100821 58 66 0.0 0.0 0.00 0.00 0.00 96 1016.8
20240612100316 58 66 0.0 0.0 0.00 0.00 0.00 95 1016.8
20240612095830 58 66 0.0 0.0 0.00 0.00 0.00 96 1016.7
20240612095324 58 66 0.0 0.0 0.00 0.00 0.00 96 1016.8
20240612094823 58 66 0.0 0.0 0.00 0.00 0.00 96 1016.8
20240612094319 58 66 0.0 0.0 0.00 0.00 0.00 96 1016.8
20240612093812 58 66 0.0 0.0 0.00 0.00 0.00 96 1016.8
20240612093327 58 66 0.0 0.0 0.00 0.00 0.00 96 1016.8
20240612092822 58 66 0.0 0.0 0.00 0.00 0.00 95 1016.7
20240612092317 58 66 0.0 0.0 0.00 0.00 0.00 95 1016.6
20240612091812 58 66 0.0 0.0 0.00 0.00 0.00 95 1016.6
20240612091310 58 66 0.0 0.0 0.00 0.00 0.00 95 1016.6
20240612090826 59 66 0.0 0.0 0.00 0.00 0.00 95 1016.6
20240612090321 58 66 0.0 0.0 0.00 0.00 0.00 95 1016.5
20240612085817 58 66 0.0 0.0 0.00 0.00 0.00 95 1016.5
20240612085312 58 66 0.0 0.0 0.00 0.00 0.00 95 1016.5
20240612084827 58 66 0.0 0.0 0.00 0.00 0.00 95 1016.4
20240612084338 58 66 0.0 0.0 0.00 0.00 0.00 95 1016.4
20240612083812 59 66 0.0 0.0 0.00 0.00 0.00 95 1016.4
20240612083346 59 66 0.0 0.0 0.00 0.00 0.00 95 1016.4
20240612082824 59 66 0.0 0.0 0.00 0.00 0.00 95 1016.4
20240612082318 59 66 0.0 0.0 0.00 0.00 0.00 95 1016.4
20240612081813 59 66 0.0 0.0 0.00 0.00 0.00 95 1016.5
20240612081349 59 66 0.0 0.0 0.00 0.00 0.00 95 1016.4
20240612080822 59 66 0.0 0.0 0.00 0.00 0.00 95 1016.4
20240612080317 59 66 0.0 0.0 0.00 0.00 0.00 95 1016.4
20240612075811 59 66 0.0 0.0 0.00 0.00 0.00 95 1016.4
20240612075325 60 66 0.0 0.0 0.00 0.00 0.00 95 1016.4
20240612074820 60 66 0.0 0.0 0.00 0.00 0.00 95 1016.4
20240612074319 60 66 0.0 0.0 0.00 0.00 0.00 95 1016.4
20240612073814 60 66 0.0 0.0 0.00 0.00 0.00 95 1016.4
20240612073329 60 66 0.0 0.0 0.00 0.00 0.00 95 1016.5
20240612072844 60 66 0.0 0.0 0.00 0.00 0.00 95 1016.4
20240612072317 60 66 0.0 0.0 0.00 0.00 0.00 95 1016.5
20240612071811 60 66 0.0 0.0 0.00 0.00 0.00 95 1016.5
20240612071327 60 66 0.0 0.0 0.00 0.00 0.00 94 1016.4
20240612070821 61 66 0.0 0.0 0.00 0.00 0.00 95 1016.5
20240612070319 61 66 0.0 0.0 0.00 0.00 0.00 95 1016.4
20240612065814 61 66 0.0 0.0 0.00 0.00 0.00 95 1016.5
20240612065309 60 66 0.0 0.0 0.00 0.00 0.00 95 1016.5
20240612064824 60 66 0.0 0.0 0.00 0.00 0.00 94 1016.5
20240612064320 60 66 0.0 0.0 0.00 0.00 0.00 94 1016.5
20240612063816 61 66 0.0 0.0 0.00 0.00 0.00 94 1016.6
20240612063332 61 66 0.0 0.0 0.00 0.00 0.00 94 1016.6
20240612062847 61 66 0.0 0.0 0.00 0.00 0.00 94 1016.6
20240612062322 61 66 0.0 0.0 0.00 0.00 0.00 94 1016.6
20240612061819 61 66 0.0 0.0 0.00 0.00 0.00 94 1016.6
20240612061316 61 66 0.0 0.0 0.00 0.00 0.00 94 1016.7
20240612060831 61 66 0.0 0.0 0.00 0.00 0.00 94 1016.6
20240612060324 62 66 0.0 0.0 0.00 0.00 0.00 94 1016.5
20240612055817 62 66 0.0 0.0 0.00 0.00 0.00 94 1016.6
20240612055333 62 66 0.0 0.0 0.00 0.00 0.00 94 1016.6
20240612054826 62 66 0.0 0.0 0.00 0.00 0.00 94 1016.7
20240612054321 62 66 0.0 0.0 0.00 0.00 0.00 94 1016.7
20240612053836 62 66 0.0 0.0 0.00 0.00 0.00 94 1016.7
20240612053334 62 66 0.0 0.0 0.00 0.00 0.00 94 1016.8
20240612052829 62 66 0.0 0.0 0.00 0.00 0.00 94 1016.8
20240612052323 62 66 0.0 0.0 0.00 0.00 0.00 94 1016.8
20240612051818 62 66 0.0 0.0 0.00 0.00 0.00 93 1016.8
20240612051313 62 66 0.0 0.0 0.00 0.00 0.00 93 1016.7
20240612050828 63 66 0.0 0.0 0.00 0.00 0.00 93 1016.7
20240612050323 63 66 0.0 0.0 0.00 0.00 0.00 94 1016.7
20240612045838 63 66 0.0 0.0 0.00 0.00 0.00 93 1016.8
20240612045315 63 66 0.0 0.0 0.00 0.00 0.00 94 1016.7
20240612044810 62 66 0.0 0.0 0.00 0.00 0.00 93 1016.7
20240612044325 62 66 0.0 0.0 0.00 0.00 0.00 93 1016.7
20240612043840 62 66 0.0 0.0 0.00 0.00 0.00 93 1016.6
20240612043314 62 66 0.0 0.0 0.00 0.00 0.00 93 1016.6
20240612042829 63 66 0.0 0.0 0.00 0.00 0.00 92 1016.5
20240612042343 63 66 0.0 0.0 0.00 0.00 0.00 92 1016.6
20240612041817 63 66 0.0 0.0 0.00 0.00 0.00 92 1016.6
20240612041312 63 66 0.0 0.0 0.00 0.00 0.00 92 1016.5
20240612040830 63 66 0.0 0.0 0.00 0.00 0.00 92 1016.4
20240612040345 64 66 0.0 0.0 0.00 0.00 0.00 92 1016.4
20240612035820 63 66 0.0 0.0 0.00 0.00 0.00 92 1016.4
20240612035335 63 66 0.0 0.0 0.00 0.00 0.00 91 1016.4
20240612034828 64 66 0.0 0.0 0.00 0.00 0.00 91 1016.4
20240612034323 64 66 0.0 0.0 0.00 0.00 0.00 91 1016.4
20240612033818 64 66 0.0 0.0 0.00 0.00 0.00 91 1016.3
20240612033311 64 66 0.0 0.0 0.00 0.00 0.00 91 1016.3
20240612032826 64 66 0.0 0.0 0.00 0.00 0.00 90 1016.3
20240612032325 64 66 0.0 0.0 0.00 0.00 0.00 90 1016.2
20240612031819 65 66 0.0 0.0 0.00 0.00 0.00 90 1016.1
20240612031334 65 66 0.0 0.0 0.00 0.00 0.00 89 1016.0
20240612030826 65 66 0.0 0.0 0.00 0.00 0.00 90 1016.0
20240612030321 65 66 0.0 0.0 0.00 0.00 0.00 90 1015.9
20240612025814 65 66 0.0 0.0 0.00 0.00 0.00 89 1015.8
20240612025329 65 66 0.0 0.0 0.00 0.00 0.00 89 1015.6
20240612024825 66 66 0.0 0.0 0.00 0.00 0.00 90 1015.5
20240612024319 66 66 0.0 0.0 0.00 0.00 0.00 89 1015.5
20240612023819 66 66 0.0 0.0 0.00 0.00 0.00 88 1015.5
20240612023314 66 66 0.0 0.0 0.00 0.00 0.00 87 1015.4
20240612022850 66 66 0.0 0.0 0.00 0.00 0.00 86 1015.3
20240612022324 67 66 0.0 0.0 0.00 0.00 0.00 86 1015.3
20240612021818 67 66 0.0 0.0 0.00 0.00 0.00 87 1015.3
20240612021352 67 66 0.0 0.0 0.00 0.00 0.00 86 1015.3
20240612020824 67 66 0.0 0.0 0.00 0.00 0.00 86 1015.3
20240612020320 68 66 0.0 0.0 0.00 0.00 0.00 86 1015.3
20240612015818 68 66 0.0 0.0 0.00 0.00 0.00 85 1015.3
20240612015312 68 63 0.0 0.0 0.00 0.00 0.00 83 1015.3
20240612014827 69 63 0.0 0.0 0.00 0.00 0.00 84 1015.3
20240612014322 69 63 0.0 0.0 0.00 0.00 0.00 82 1015.2
20240612013815 69 63 0.0 0.0 0.00 0.00 0.00 81 1015.3
20240612013311 70 63 0.0 0.0 0.00 0.00 0.00 80 1015.2
20240612012825 70 63 0.0 0.0 0.00 0.00 0.00 80 1015.3
20240612012320 71 63 0.0 1.0 0.00 0.00 0.00 78 1015.2
20240612011818 71 63 0.0 1.0 0.00 0.00 0.00 78 1015.2
20240612011313 72 77 0.0 0.0 0.00 0.00 0.00 77 1015.2
20240612010848 72 89 0.0 1.0 0.00 0.00 0.00 76 1015.2
20240612010322 73 87 0.0 1.0 0.00 0.00 0.00 76 1015.2
20240612005816 73 291 0.0 0.0 0.00 0.00 0.00 72 1015.1
20240612005311 74 291 0.0 0.0 0.00 0.00 0.00 70 1015.1
20240612004826 75 291 0.0 0.0 0.00 0.00 0.00 65 1015.1
20240612004321 75 291 0.0 0.0 0.00 0.00 0.00 65 1015.1
20240612003820 76 77 0.0 0.0 0.00 0.00 0.00 64 1015.1
20240612003314 76 77 0.0 0.0 0.00 0.00 0.00 64 1015.0
20240612002829 77 77 0.0 1.0 0.00 0.00 0.00 62 1015.1
20240612002325 77 77 0.0 2.0 0.00 0.00 0.00 61 1015.1
20240612001834 77 74 0.0 1.0 0.00 0.00 0.00 61 1015.1
20240612001316 77 81 0.0 1.0 0.00 0.00 0.00 61 1015.1
20240612000851 78 65 0.0 0.0 0.00 0.00 0.00 59 1015.2
20240612000348 78 13 0.0 0.0 0.00 0.00 0.00 59 1015.2
20240611235913 78 13 0.0 0.0 0.00 0.00 0.00 60 1015.2
20240611235314 79 13 0.0 0.0 0.00 0.00 0.00 60 1015.2
20240611234817 79 12 0.0 2.0 0.00 0.00 0.00 59 1015.1
20240611234313 79 14 0.0 2.0 0.00 0.00 0.00 58 1015.1
20240611233848 80 32 0.0 2.0 0.00 0.00 0.00 57 1015.1
20240611233323 80 28 0.0 0.0 0.00 0.00 0.00 58 1015.1
20240611232823 80 28 0.0 0.0 0.00 0.00 0.00 54 1015.1
20240611232318 80 28 0.0 0.0 0.00 0.00 0.00 56 1015.1
20240611231813 80 28 0.0 1.0 0.00 0.00 0.00 59 1015.2
20240611231349 80 30 0.0 1.0 0.00 0.00 0.00 57 1015.2
20240611230822 81 5 0.0 0.0 0.00 0.00 0.00 57 1015.2
20240611230317 81 5 0.0 4.0 0.00 0.00 0.00 59 1015.3
20240611225811 80 9 0.0 4.0 0.00 0.00 0.00 59 1015.3
20240611225311 81 30 0.0 3.0 0.00 0.00 0.00 57 1015.4
20240611224828 80 31 1.0 4.0 0.00 0.00 0.00 55 1015.4
20240611224323 81 31 2.0 4.0 0.00 0.00 0.00 58 1015.6
20240611223817 81 31 2.0 3.0 0.00 0.00 0.00 56 1015.6
20240611223313 81 53 1.0 3.0 0.00 0.00 0.00 59 1015.5
20240611222828 81 43 1.0 3.0 0.00 0.00 0.00 59 1015.6
20240611222323 81 30 1.0 3.0 0.00 0.00 0.00 58 1015.7
20240611221817 81 33 1.0 3.0 0.00 0.00 0.00 57 1015.7
20240611221336 81 35 0.0 4.0 0.00 0.00 0.00 59 1015.8
20240611220829 81 340 1.0 3.0 0.00 0.00 0.00 59 1015.8
20240611220324 81 340 2.0 8.0 0.00 0.00 0.00 57 1015.9
20240611215838 81 340 2.0 8.0 0.00 0.00 0.00 58 1015.9
20240611215312 82 337 2.0 6.0 0.00 0.00 0.00 58 1015.9
20240611214827 81 338 1.0 5.0 0.00 0.00 0.00 56 1016.0
20240611214322 81 329 1.0 2.0 0.00 0.00 0.00 56 1016.0
20240611213816 81 324 0.0 1.0 0.00 0.00 0.00 56 1016.0
20240611213331 81 324 0.0 1.0 0.00 0.00 0.00 54 1016.0
20240611212830 81 259 0.0 9.0 0.00 0.00 0.00 55 1016.0
20240611212325 81 259 1.0 9.0 0.00 0.00 0.00 52 1016.0
20240611211820 81 263 4.0 6.0 0.00 0.00 0.00 55 1016.1
20240611211316 81 246 3.0 5.0 0.00 0.00 0.00 53 1016.1
20240611210811 81 55 0.0 0.0 0.00 0.00 0.00 56 1016.0
20240611210326 81 55 0.0 0.0 0.00 0.00 0.00 57 1016.1
20240611205840 81 336 0.0 3.0 0.00 0.00 0.00 56 1016.2
20240611205335 81 336 0.0 4.0 0.00 0.00 0.00 58 1016.2
20240611204813 81 334 1.0 4.0 0.00 0.00 0.00 58 1016.3
20240611204329 81 234 0.0 0.0 0.00 0.00 0.00 58 1016.3
20240611203845 80 207 0.0 4.0 0.00 0.00 0.00 57 1016.2
20240611203319 80 207 1.0 4.0 0.00 0.00 0.00 57 1016.4
20240611202815 80 211 0.0 2.0 0.00 0.00 0.00 58 1016.4
20240611202329 79 183 0.0 3.0 0.00 0.00 0.00 63 1016.5
20240611201824 79 185 0.0 5.0 0.00 0.00 0.00 55 1016.5
20240611201318 79 124 0.0 5.0 0.00 0.00 0.00 58 1016.5
20240611200818 79 192 1.0 5.0 0.00 0.00 0.00 59 1016.5
20240611200312 79 213 1.0 4.0 0.00 0.00 0.00 56 1016.5
20240611195826 79 248 1.0 4.0 0.00 0.00 0.00 54 1016.5
20240611195321 79 261 0.0 4.0 0.00 0.00 0.00 59 1016.5
20240611194816 79 259 0.0 4.0 0.00 0.00 0.00 52 1016.6
20240611194330 79 217 0.0 1.0 0.00 0.00 0.00 61 1016.6
20240611193824 78 217 0.0 8.0 0.00 0.00 0.00 57 1016.7
20240611193340 78 265 2.0 8.0 0.00 0.00 0.00 55 1016.6
20240611192818 78 128 0.0 3.0 0.00 0.00 0.00 59 1016.7
20240611192314 78 128 0.0 5.0 0.00 0.00 0.00 54 1016.6
20240611191810 79 144 0.0 3.0 0.00 0.00 0.00 58 1016.6
20240611191326 78 202 0.0 5.0 0.00 0.00 0.00 55 1016.7
20240611190821 78 201 1.0 6.0 0.00 0.00 0.00 57 1016.6
20240611190317 79 240 3.0 7.0 0.00 0.00 0.00 53 1016.6
20240611185833 79 197 4.0 7.0 0.00 0.00 0.00 58 1016.7
20240611185327 79 198 1.0 7.0 0.00 0.00 0.00 62 1016.7
20240611184826 78 254 2.0 8.0 0.00 0.00 0.00 57 1016.7
20240611184321 78 247 6.0 8.0 0.00 0.00 0.00 57 1016.8
20240611183817 78 228 2.0 5.0 0.00 0.00 0.00 55 1016.8
20240611183320 78 139 2.0 7.0 0.00 0.00 0.00 58 1016.8
20240611182835 78 87 3.0 7.0 0.00 0.00 0.00 59 1016.9
20240611182329 78 124 0.0 3.0 0.00 0.00 0.00 59 1016.9
20240611181823 78 125 0.0 5.0 0.00 0.00 0.00 57 1017.0
20240611181318 77 119 2.0 6.0 0.00 0.00 0.00 61 1017.0
20240611180817 77 192 2.0 8.0 0.00 0.00 0.00 61 1017.0
20240611180312 77 219 3.0 8.0 0.00 0.00 0.00 57 1017.1
20240611175826 77 200 0.0 6.0 0.00 0.00 0.00 60 1017.1
20240611175321 78 131 3.0 7.0 0.00 0.00 0.00 59 1017.1
20240611174836 77 109 2.0 7.0 0.00 0.00 0.00 60 1017.1
20240611174330 77 140 2.0 6.0 0.00 0.00 0.00 62 1017.2
20240611173824 77 198 1.0 6.0 0.00 0.00 0.00 60 1017.3
20240611173318 77 121 1.0 6.0 0.00 0.00 0.00 61 1017.3
20240611172851 77 113 3.0 8.0 0.00 0.00 0.00 59 1017.3
20240611172326 77 251 2.0 8.0 0.00 0.00 0.00 59 1017.3
20240611171846 77 216 2.0 5.0 0.00 0.00 0.00 61 1017.2
20240611171320 77 188 3.0 5.0 0.00 0.00 0.00 60 1017.3
20240611170816 76 213 3.0 6.0 0.00 0.00 0.00 60 1017.3
20240611170312 76 156 3.0 6.0 0.00 0.00 0.00 57 1017.3
20240611165846 76 227 2.0 8.0 0.00 0.00 0.00 63 1017.2
20240611165320 76 130 1.0 7.0 0.00 0.00 0.00 66 1017.3
20240611164835 75 224 2.0 7.0 0.00 0.00 0.00 61 1017.2
20240611164348 75 205 1.0 9.0 0.00 0.00 0.00 65 1017.2
20240611163821 76 200 3.0 9.0 0.00 0.00 0.00 63 1017.2
20240611163336 75 205 3.0 7.0 0.00 0.00 0.00 64 1017.2
20240611162832 75 216 2.0 7.0 0.00 0.00 0.00 65 1017.1
20240611162327 75 232 5.0 7.0 0.00 0.00 0.00 65 1017.0
20240611161843 75 175 2.0 6.0 0.00 0.00 0.00 64 1017.0
20240611161318 75 155 3.0 6.0 0.00 0.00 0.00 66 1017.0
20240611160815 75 217 3.0 10.0 0.00 0.00 0.00 66 1017.0
20240611160351 75 105 2.0 10.0 0.00 0.00 0.00 66 1017.1
20240611155824 75 150 2.0 8.0 0.00 0.00 0.00 66 1017.1
20240611155341 74 170 2.0 7.0 0.00 0.00 0.00 69 1017.2
20240611154815 74 140 2.0 7.0 0.00 0.00 0.00 70 1017.2
20240611154314 74 225 3.0 5.0 0.00 0.00 0.00 69 1017.1
20240611153829 73 183 2.0 7.0 0.00 0.00 0.00 71 1017.1
20240611153324 73 193 3.0 7.0 0.00 0.00 0.00 69 1017.3
20240611152840 74 108 2.0 7.0 0.00 0.00 0.00 68 1017.4
20240611152314 74 197 0.0 3.0 0.00 0.00 0.00 72 1017.5
20240611151829 73 176 0.0 5.0 0.00 0.00 0.00 71 1017.6
20240611151345 73 191 2.0 5.0 0.00 0.00 0.00 69 1017.5
20240611150819 73 225 3.0 5.0 0.00 0.00 0.00 70 1017.5
20240611150334 73 244 3.0 7.0 0.00 0.00 0.00 70 1017.4
20240611145827 72 191 3.0 6.0 0.00 0.00 0.00 70 1017.4